Wahpeton, MN

10:03 PM CDT on October 20, 2019 (GMT -0500)
Stern

Weather History for KBWP - August, 2019

Change the Weather History Date:

Tuesday, August 20, 2019

  Actual Average (WUND) Record (WUND)
Temperature  
Mean Temperature 65 °F -  
Max Temperature 77 °F - - (-1)
Min Temperature 53 °F - - (-1)
Growing Degree Days 15 (Base 50)    
Moisture  
Dew Point 60 °F    
Average Humidity 75    
Maximum Humidity 94    
Minimum Humidity 47    
Precipitation  
Precipitation 0.00 in - - ()
Sea Level Pressure  
Sea Level Pressure 29.97 in    
Wind  
Wind Speed 8 mph ()    
Max Wind Speed 18 mph    
Max Gust Speed 24 mph    
Visibility 9.8 miles    
Events      
Averages and records for this station are not official NWS values.
T = Trace of Precipitation, MM = Missing Value Source: Averaged Metar Reports

Daily Weather History Graph

Daily Weather History Graph

Search for Another Location

Airport or City:

Astronomy

Aug. 20, 2019 Rise Set
Actual Time 6:31 AM CDT 8:27 PM CDT
Civil Twilight 5:59 AM CDT 8:59 PM CDT
Nautical Twilight 5:19 AM CDT 9:38 PM CDT
Astronomical Twilight 4:35 AM CDT 10:22 PM CDT
Moon 11:00 PM CDT (8/20) 11:25 AM CDT (8/20)
Length of Visible Light 15h 00m
Length of Day
13h 55m
Waning Gibbous, 77% of the Moon is Illuminated
Aug 20
Waning Gibbous
Aug 23
Last Quarter
Aug 30
New
Sep 5
First Quarter
Sep 13
Full

Hourly Weather History & Observations

Time (CDT) Temp. Dew Point Humidity Pressure Visibility Wind Dir Wind Speed Gust Speed Precip Events Conditions
12:15 AM 68.0 °F 64.4 °F 88% 29.90 in 10.0 mi SSE 10.4 mph - N/A   Scattered Clouds
12:35 AM 69.8 °F 64.4 °F 83% 29.89 in 10.0 mi SSE 10.4 mph - N/A   Scattered Clouds
12:55 AM 68.0 °F 64.4 °F 88% 29.88 in 10.0 mi SSE 9.2 mph - N/A   Scattered Clouds
1:15 AM 68.0 °F 64.4 °F 88% 29.87 in 10.0 mi SE 6.9 mph - N/A   Mostly Cloudy
1:35 AM 68.0 °F 64.4 °F 88% 29.87 in 10.0 mi SSE 8.1 mph - N/A   Overcast
1:55 AM 68.0 °F 64.4 °F 88% 29.86 in 10.0 mi SSE 8.1 mph - N/A   Overcast
2:15 AM 68.0 °F 64.4 °F 88% 29.87 in 10.0 mi SSE 8.1 mph - N/A   Overcast
2:35 AM 68.0 °F 64.4 °F 88% 29.87 in 10.0 mi SSE 8.1 mph - N/A   Overcast
2:55 AM 68.0 °F 64.4 °F 88% 29.87 in 10.0 mi SSE 6.9 mph - N/A   Overcast
3:15 AM 68.0 °F 64.4 °F 88% 29.86 in 10.0 mi SSE 6.9 mph - N/A   Mostly Cloudy
3:35 AM 68.0 °F 64.4 °F 88% 29.84 in 10.0 mi SSE 9.2 mph - N/A   Mostly Cloudy
3:55 AM 68.0 °F 64.4 °F 88% 29.83 in 10.0 mi SSE 11.5 mph 16.1 mph N/A   Mostly Cloudy
4:15 AM 68.0 °F 64.4 °F 88% 29.83 in 10.0 mi SSE 9.2 mph - N/A   Scattered Clouds
4:35 AM 68.0 °F 64.4 °F 88% 29.83 in 10.0 mi SSE 5.8 mph - N/A   Mostly Cloudy
4:55 AM 68.0 °F 64.4 °F 88% 29.82 in 10.0 mi South 9.2 mph - N/A   Mostly Cloudy
5:15 AM 68.0 °F 64.4 °F 88% 29.83 in 10.0 mi SSE 4.6 mph - N/A   Scattered Clouds
5:35 AM 68.0 °F 64.4 °F 88% 29.82 in 10.0 mi South 4.6 mph - N/A   Scattered Clouds
5:55 AM 66.2 °F 62.6 °F 88% 29.82 in 10.0 mi SSW 5.8 mph - N/A   Scattered Clouds
6:15 AM 66.2 °F 62.6 °F 88% 29.82 in 10.0 mi SW 4.6 mph - N/A   Scattered Clouds
6:35 AM 64.4 °F 62.6 °F 94% 29.82 in 7.0 mi South 6.9 mph - N/A   Clear
6:55 AM 66.2 °F 62.6 °F 88% 29.84 in 7.0 mi Calm Calm - N/A   Clear
7:15 AM 66.2 °F 64.4 °F 94% 29.85 in 7.0 mi Calm Calm - N/A   Mostly Cloudy
7:35 AM 66.2 °F 64.4 °F 94% 29.87 in 10.0 mi East 3.5 mph - N/A   Overcast
7:55 AM 68.0 °F 64.4 °F 88% 29.89 in 10.0 mi NE 4.6 mph - N/A   Overcast
8:15 AM 68.0 °F 64.4 °F 88% 29.89 in 10.0 mi East 5.8 mph - N/A   Overcast
8:35 AM 68.0 °F 64.4 °F 88% 29.90 in 7.0 mi East 5.8 mph - N/A   Overcast
8:55 AM 68.0 °F 64.4 °F 88% 29.91 in 10.0 mi ESE 4.6 mph - N/A   Overcast
9:15 AM 69.8 °F 66.2 °F 88% 29.94 in 10.0 mi Calm Calm - N/A   Overcast
9:35 AM 69.8 °F 66.2 °F 88% 29.95 in 10.0 mi Calm Calm - N/A   Overcast
9:55 AM 71.6 °F 66.2 °F 83% 29.96 in 10.0 mi Calm Calm - N/A   Overcast
10:15 AM 71.6 °F 66.2 °F 83% 29.97 in 10.0 mi North 8.1 mph - N/A   Overcast
10:35 AM 69.8 °F 62.6 °F 78% 29.99 in 10.0 mi North 11.5 mph 17.3 mph N/A   Overcast
10:55 AM 69.8 °F 62.6 °F 78% 30.00 in 10.0 mi Calm Calm - N/A   Overcast
11:15 AM 71.6 °F 62.6 °F 73% 30.00 in 10.0 mi NNW 6.9 mph - N/A   Mostly Cloudy
11:35 AM 73.4 °F 62.6 °F 69% 30.00 in 10.0 mi NNW 8.1 mph - N/A   Scattered Clouds
11:55 AM 77.0 °F 60.8 °F 57% 30.00 in 10.0 mi North 9.2 mph - N/A   Clear
12:15 PM 75.2 °F 62.6 °F 65% 30.00 in 10.0 mi NNW 13.8 mph - N/A   Clear
12:35 PM 73.4 °F 60.8 °F 65% 30.01 in 10.0 mi NNW 13.8 mph - N/A   Scattered Clouds
12:55 PM 73.4 °F 60.8 °F 65% 30.02 in 10.0 mi North 13.8 mph 17.3 mph N/A   Mostly Cloudy
1:15 PM 71.6 °F 60.8 °F 69% 30.03 in 10.0 mi North 16.1 mph 24.2 mph N/A   Mostly Cloudy
1:35 PM 69.8 °F 59.0 °F 68% 30.03 in 10.0 mi North 15.0 mph 20.7 mph N/A   Overcast
1:55 PM 71.6 °F 60.8 °F 69% 30.04 in 10.0 mi North 17.3 mph 21.9 mph N/A   Overcast
2:15 PM 73.4 °F 60.8 °F 65% 30.04 in 10.0 mi North 11.5 mph - N/A   Overcast
2:35 PM 73.4 °F 60.8 °F 65% 30.04 in 10.0 mi North 15.0 mph 19.6 mph N/A   Overcast
2:55 PM 73.4 °F 60.8 °F 65% 30.04 in 10.0 mi North 13.8 mph 19.6 mph N/A   Overcast
3:15 PM 77.0 °F 59.0 °F 54% 30.03 in 10.0 mi North 18.4 mph - N/A   Overcast
3:35 PM 77.0 °F 59.0 °F 54% 30.04 in 10.0 mi North 17.3 mph 21.9 mph N/A   Scattered Clouds
3:55 PM 73.4 °F 59.0 °F 61% 30.04 in 10.0 mi North 13.8 mph 23.0 mph N/A   Clear
4:15 PM 75.2 °F 57.2 °F 53% 30.03 in 10.0 mi North 15.0 mph 23.0 mph N/A   Clear
4:35 PM 75.2 °F 57.2 °F 53% 30.03 in 10.0 mi North 13.8 mph 23.0 mph N/A   Clear
4:55 PM 75.2 °F 55.4 °F 50% 30.03 in 10.0 mi North 12.7 mph 17.3 mph N/A   Clear
5:15 PM 75.2 °F 55.4 °F 50% 30.03 in 10.0 mi North 12.7 mph 19.6 mph N/A   Clear
5:35 PM 75.2 °F 55.4 °F 50% 30.04 in 10.0 mi North 11.5 mph 18.4 mph N/A   Clear
5:55 PM 75.2 °F 53.6 °F 47% 30.04 in 10.0 mi North 13.8 mph 17.3 mph N/A   Clear
6:15 PM 73.4 °F 53.6 °F 50% 30.05 in 10.0 mi NNW 10.4 mph 19.6 mph N/A   Clear
6:35 PM 73.4 °F 53.6 °F 50% 30.05 in 10.0 mi North 13.8 mph 18.4 mph N/A   Clear
6:55 PM 73.4 °F 51.8 °F 47% 30.05 in 10.0 mi North 11.5 mph - N/A   Clear
7:15 PM 71.6 °F 51.8 °F 50% 30.05 in 10.0 mi North 10.4 mph - N/A   Clear
7:35 PM 71.6 °F 53.6 °F 53% 30.06 in 10.0 mi NNW 11.5 mph - N/A   Clear
7:55 PM 68.0 °F 53.6 °F 60% 30.05 in 10.0 mi NW 6.9 mph - N/A   Clear
8:15 PM 64.4 °F 55.4 °F 73% 30.06 in 10.0 mi NNW 6.9 mph - N/A   Clear
8:35 PM 62.6 °F 53.6 °F 72% 30.07 in 10.0 mi NW 6.9 mph - N/A   Clear
8:55 PM 60.8 °F 53.6 °F 77% 30.08 in 10.0 mi NNW 5.8 mph - N/A   Clear
9:15 PM 62.6 °F 53.6 °F 72% 30.08 in 10.0 mi NNW 5.8 mph - N/A   Clear
9:35 PM 62.6 °F 53.6 °F 72% 30.09 in 10.0 mi North 5.8 mph - N/A   Clear
9:55 PM 60.8 °F 51.8 °F 72% 30.09 in 10.0 mi North 5.8 mph - N/A   Clear
10:35 PM 60.8 °F 51.8 °F 72% 30.10 in 10.0 mi NNW 4.6 mph - N/A   Clear
10:55 PM 59.0 °F 51.8 °F 77% 30.10 in 10.0 mi North 5.8 mph - N/A   Clear
11:35 PM 53.6 °F 50.0 °F 88% 30.11 in 10.0 mi North 3.5 mph - N/A   Clear
11:55 PM 53.6 °F 50.0 °F 88% 30.11 in 10.0 mi NW 3.5 mph - N/A   Clear